Weather in Krasnaya Polyana

Russia / Kirov Oblast     56°14′40″N   51°09′10″E
temp.,
°C
wind,
m/s
gust,
m/s
humid.,
%
clouds,
%
prec.,
mm/h
press.,
hPa
HPBL,
m
6 may, thu
thu600:00+4w411845 0.0 1010559
03:00+3wsw310927 0.0 1012340
06:00+5w497989 0.0 1013506
09:00+9w466299 0.0 1015919
12:00+10w356315 0.0 1016716
15:00+15w465130 0.0 10151578
18:00+13ssw24675 0.0 1015148
21:00+9s379181 0.0 1016114
7 may, fri
fri700:00+9s398999 0.0 1016166
03:00+8s31190100 0.0 1017223
06:00+11s41270100 0.0 1017384
09:00+16ssw51052100 0.0 1016815
12:00+18ssw61042100 0.0 10162335
15:00+18ssw51045100 0.0 10152603
18:00+15ssw41055100 0.0 1015798
21:00+11s3107699 0.0 1016217
8 may, sat
sat800:00+11wsw1276100 0.0 101750
03:00+9n1196100 0.0 101811
06:00+10nne2289100 0.0 1019226
09:00+11ene2385100 0.1 1019278
12:00+16ese126110 0.0 1018849
15:00+19s344753 0.1 10171907
18:00+16s36635 0.1 1016264
21:00+13se397365 0.1 1016226
9 may, sun
sun900:00+10se3108071 0.0 1016194
03:00+9se310817 0.0 1016187
06:00+13se4126465 0.0 1016362
09:00+19sse61042100 0.0 10151177
12:00+21s6837100 0.0 10152213
15:00+21s4741100 0.0 10151900
18:00+19sse4949100 0.0 1015471
21:00+13wnw51082100 0.0 1018417
10 may, mon
mon1000:00+11nw2496100 2.6 1019196
03:00+10nw3596100 4.8 1021275
06:00+10nw2491100 0.2 1024397
09:00+9nnw4791100 1.1 1026503
12:00+9n3688100 0.9 1027445
15:00+15n245714 0.9 10271265
18:00+14n37572 0.0 1028448
21:00+8n23770 0.0 103041